| time (UTC) | temp F | wind direction | speed MPH | gust MPH | rain 1hr in | rain 24hr in | rain mn in | humidity % | barometer mb |
| 20260903074223 | 66 | 81 | 12.0 | 15.0 | 0.00 | 0.00 | 0.00 | 70 | 1008.7 |
| 20260903073718 | 67 | 50 | 7.0 | 9.0 | 0.00 | 0.00 | 0.00 | 70 | 1008.5 |
| 20260903073214 | 67 | 66 | 9.0 | 13.0 | 0.00 | 0.00 | 0.00 | 69 | 1008.7 |
| 20260903072709 | 67 | 82 | 8.0 | 9.0 | 0.00 | 0.00 | 0.00 | 68 | 1008.4 |
| 20260903072206 | 68 | 78 | 8.0 | 11.0 | 0.00 | 0.00 | 0.00 | 68 | 1008.7 |
| 20260903071702 | 68 | 74 | 8.0 | 13.0 | 0.00 | 0.00 | 0.00 | 68 | 1008.9 |
| 20260903071157 | 68 | 80 | 5.0 | 6.0 | 0.00 | 0.00 | 0.00 | 67 | 1009.0 |
| 20260903070657 | 68 | 82 | 8.0 | 10.0 | 0.00 | 0.00 | 0.00 | 67 | 1009.0 |
| 20260903070153 | 68 | 75 | 8.0 | 10.0 | 0.00 | 0.00 | 0.00 | 67 | 1009.2 |
| 20260903065647 | 68 | 105 | 9.0 | 10.0 | 0.00 | 0.00 | 0.00 | 66 | 1009.3 |
| 20260903065147 | 68 | 93 | 12.0 | 16.0 | 0.00 | 0.00 | 0.00 | 67 | 1009.4 |
| 20260903064646 | 68 | 85 | 7.0 | 10.0 | 0.00 | 0.00 | 0.00 | 67 | 1009.3 |
| 20260903064142 | 68 | 87 | 10.0 | 11.0 | 0.00 | 0.00 | 0.00 | 68 | 1009.5 |
| 20260903063638 | 68 | 74 | 7.0 | 9.0 | 0.00 | 0.00 | 0.00 | 68 | 1009.6 |
| 20260903063138 | 67 | 73 | 7.0 | 8.0 | 0.00 | 0.00 | 0.00 | 69 | 1009.5 |
| 20260903062634 | 67 | 117 | 7.0 | 9.0 | 0.00 | 0.00 | 0.00 | 70 | 1009.7 |
| 20260903062129 | 67 | 70 | 8.0 | 10.0 | 0.00 | 0.00 | 0.00 | 70 | 1009.7 |
| 20260903061624 | 67 | 91 | 7.0 | 8.0 | 0.00 | 0.00 | 0.00 | 70 | 1009.8 |
| 20260903061123 | 68 | 131 | 7.0 | 8.0 | 0.00 | 0.00 | 0.00 | 69 | 1009.6 |
| 20260903060618 | 68 | 84 | 7.0 | 8.0 | 0.00 | 0.00 | 0.00 | 69 | 1009.6 |
| 20260903060114 | 68 | 81 | 8.0 | 10.0 | 0.00 | 0.00 | 0.00 | 69 | 1009.8 |
| 20260903055611 | 68 | 81 | 7.0 | 8.0 | 0.00 | 0.00 | 0.00 | 69 | 1010.1 |
| 20260903055109 | 68 | 93 | 7.0 | 9.0 | 0.00 | 0.00 | 0.00 | 69 | 1010.1 |
| 20260903054604 | 69 | 87 | 7.0 | 8.0 | 0.00 | 0.00 | 0.00 | 68 | 1010.0 |
| 20260903054101 | 69 | 104 | 7.0 | 9.0 | 0.00 | 0.00 | 0.00 | 68 | 1009.8 |
| 20260903053556 | 69 | 104 | 9.0 | 11.0 | 0.00 | 0.00 | 0.00 | 68 | 1009.9 |
| 20260903053052 | 69 | 113 | 8.0 | 9.0 | 0.00 | 0.00 | 0.00 | 68 | 1009.9 |
| 20260903052548 | 69 | 59 | 8.0 | 9.0 | 0.00 | 0.00 | 0.00 | 68 | 1010.0 |
| 20260903052043 | 69 | 113 | 6.0 | 7.0 | 0.00 | 0.00 | 0.00 | 69 | 1010.2 |
| 20260903051542 | 68 | 104 | 8.0 | 10.0 | 0.00 | 0.00 | 0.00 | 69 | 1010.2 |
| 20260903051038 | 68 | 63 | 7.0 | 10.0 | 0.00 | 0.00 | 0.00 | 70 | 1010.2 |
| 20260903050537 | 68 | 83 | 9.0 | 9.0 | 0.00 | 0.00 | 0.00 | 71 | 1010.2 |
| 20260903050033 | 68 | 80 | 6.0 | 7.0 | 0.00 | 0.00 | 0.00 | 71 | 1010.4 |
| 20260903045532 | 68 | 94 | 9.0 | 11.0 | 0.00 | 0.00 | 0.00 | 72 | 1010.3 |
| 20260903045029 | 67 | 64 | 7.0 | 9.0 | 0.00 | 0.00 | 0.00 | 72 | 1010.3 |
| 20260903044525 | 68 | 57 | 8.0 | 10.0 | 0.00 | 0.00 | 0.00 | 72 | 1010.2 |
| 20260903044020 | 68 | 76 | 8.0 | 9.0 | 0.00 | 0.00 | 0.00 | 71 | 1010.3 |
| 20260903043516 | 68 | 103 | 11.0 | 13.0 | 0.00 | 0.00 | 0.00 | 70 | 1010.0 |
| 20260903043015 | 68 | 57 | 8.0 | 10.0 | 0.00 | 0.00 | 0.00 | 70 | 1010.2 |
| 20260903042510 | 68 | 84 | 7.0 | 9.0 | 0.00 | 0.00 | 0.00 | 70 | 1010.3 |
| 20260903042006 | 68 | 59 | 8.0 | 11.0 | 0.00 | 0.00 | 0.00 | 71 | 1010.5 |
| 20260903041502 | 67 | 58 | 8.0 | 10.0 | 0.00 | 0.00 | 0.00 | 71 | 1010.3 |
| 20260903040957 | 67 | 75 | 7.0 | 10.0 | 0.00 | 0.00 | 0.00 | 71 | 1010.4 |
| 20260903040456 | 67 | 58 | 5.0 | 6.0 | 0.00 | 0.00 | 0.00 | 71 | 1010.5 |
| 20260903035953 | 67 | 71 | 8.0 | 9.0 | 0.00 | 0.00 | 0.00 | 71 | 1010.5 |
| 20260903035448 | 67 | 67 | 10.0 | 13.0 | 0.00 | 0.00 | 0.00 | 71 | 1010.4 |
| 20260903034943 | 68 | 94 | 9.0 | 13.0 | 0.00 | 0.00 | 0.00 | 71 | 1010.7 |
| 20260903034438 | 68 | 72 | 8.0 | 10.0 | 0.00 | 0.00 | 0.00 | 70 | 1010.5 |
| 20260903033933 | 68 | 75 | 6.0 | 8.0 | 0.00 | 0.00 | 0.00 | 70 | 1010.6 |
| 20260903033428 | 68 | 54 | 7.0 | 8.0 | 0.00 | 0.00 | 0.00 | 69 | 1010.7 |
| 20260903032923 | 68 | 62 | 7.0 | 9.0 | 0.00 | 0.00 | 0.00 | 70 | 1010.7 |
| 20260903032419 | 68 | 62 | 8.0 | 8.0 | 0.00 | 0.00 | 0.00 | 69 | 1010.9 |
| 20260903031914 | 68 | 70 | 8.0 | 11.0 | 0.00 | 0.00 | 0.00 | 68 | 1010.7 |
| 20260903031413 | 68 | 76 | 9.0 | 10.0 | 0.00 | 0.00 | 0.00 | 68 | 1010.9 |
| 20260903030908 | 69 | 90 | 7.0 | 9.0 | 0.00 | 0.00 | 0.00 | 67 | 1010.7 |
| 20260903030405 | 69 | 93 | 5.0 | 6.0 | 0.00 | 0.00 | 0.00 | 67 | 1010.8 |
| 20260903025901 | 69 | 70 | 8.0 | 9.0 | 0.00 | 0.00 | 0.00 | 67 | 1010.7 |
| 20260903025356 | 69 | 79 | 6.0 | 8.0 | 0.00 | 0.00 | 0.00 | 67 | 1010.9 |
| 20260903024855 | 69 | 84 | 6.0 | 7.0 | 0.00 | 0.00 | 0.00 | 67 | 1010.8 |
| 20260903024350 | 70 | 71 | 6.0 | 8.0 | 0.00 | 0.00 | 0.00 | 66 | 1010.9 |
| 20260903023845 | 70 | 55 | 6.0 | 7.0 | 0.00 | 0.00 | 0.00 | 65 | 1010.9 |
| 20260903023341 | 71 | 56 | 6.0 | 9.0 | 0.00 | 0.00 | 0.00 | 64 | 1011.2 |
| 20260903022836 | 71 | 68 | 5.0 | 6.0 | 0.00 | 0.00 | 0.00 | 63 | 1011.2 |
| 20260903022335 | 71 | 59 | 6.0 | 8.0 | 0.00 | 0.00 | 0.00 | 63 | 1010.8 |
| 20260903021834 | 71 | 57 | 6.0 | 7.0 | 0.00 | 0.00 | 0.00 | 63 | 1010.7 |
| 20260903021330 | 72 | 64 | 5.0 | 7.0 | 0.00 | 0.00 | 0.00 | 63 | 1010.9 |
| 20260903020830 | 72 | 73 | 7.0 | 8.0 | 0.00 | 0.00 | 0.00 | 61 | 1010.5 |
| 20260903020325 | 72 | 76 | 5.0 | 6.0 | 0.00 | 0.00 | 0.00 | 62 | 1010.6 |
| 20260903015820 | 72 | 65 | 6.0 | 7.0 | 0.00 | 0.00 | 0.00 | 62 | 1010.7 |
| 20260903015315 | 72 | 68 | 7.0 | 9.0 | 0.00 | 0.00 | 0.00 | 61 | 1010.3 |
| 20260903014810 | 73 | 74 | 5.0 | 8.0 | 0.00 | 0.00 | 0.00 | 61 | 1010.4 |
| 20260903014309 | 73 | 78 | 6.0 | 7.0 | 0.00 | 0.00 | 0.00 | 61 | 1010.4 |
| 20260903013805 | 73 | 79 | 5.0 | 6.0 | 0.00 | 0.00 | 0.00 | 61 | 1010.4 |
| 20260903013304 | 73 | 69 | 6.0 | 8.0 | 0.00 | 0.00 | 0.00 | 60 | 1010.6 |
| 20260903012803 | 73 | 70 | 6.0 | 8.0 | 0.00 | 0.00 | 0.00 | 60 | 1010.4 |
| 20260903012258 | 73 | 79 | 7.0 | 8.0 | 0.00 | 0.00 | 0.00 | 59 | 1010.5 |
| 20260903011757 | 74 | 68 | 8.0 | 9.0 | 0.00 | 0.00 | 0.00 | 58 | 1010.5 |
| 20260903011256 | 74 | 58 | 6.0 | 7.0 | 0.00 | 0.00 | 0.00 | 58 | 1010.7 |
| 20260903010752 | 75 | 83 | 5.0 | 6.0 | 0.00 | 0.00 | 0.00 | 57 | 1010.4 |
| 20260903010247 | 76 | 66 | 8.0 | 9.0 | 0.00 | 0.00 | 0.00 | 56 | 1010.5 |
| 20260903005746 | 76 | 77 | 5.0 | 6.0 | 0.00 | 0.00 | 0.00 | 55 | 1010.6 |
| 20260903005241 | 77 | 61 | 7.0 | 13.0 | 0.00 | 0.00 | 0.00 | 54 | 1010.7 |
| 20260903004736 | 77 | 85 | 7.0 | 9.0 | 0.00 | 0.00 | 0.00 | 54 | 1010.5 |
| 20260903004232 | 78 | 116 | 7.0 | 9.0 | 0.00 | 0.00 | 0.00 | 53 | 1010.6 |
| 20260903003727 | 78 | 68 | 13.0 | 16.0 | 0.00 | 0.00 | 0.00 | 53 | 1010.7 |
| 20260903003222 | 78 | 111 | 7.0 | 8.0 | 0.00 | 0.00 | 0.00 | 54 | 1010.6 |
| 20260903002711 | 78 | 97 | 7.0 | 9.0 | 0.00 | 0.00 | 0.00 | 53 | 1010.7 |
| 20260903002205 | 78 | 112 | 10.0 | 11.0 | 0.00 | 0.00 | 0.00 | 54 | 1010.8 |
| 20260903001700 | 78 | 106 | 9.0 | 10.0 | 0.00 | 0.00 | 0.00 | 54 | 1010.9 |
| 20260903001154 | 79 | 83 | 11.0 | 15.0 | 0.00 | 0.00 | 0.00 | 53 | 1010.8 |
| 20260903000650 | 79 | 86 | 8.0 | 10.0 | 0.00 | 0.00 | 0.00 | 53 | 1010.9 |
| 20260903000149 | 78 | 72 | 6.0 | 7.0 | 0.00 | 0.00 | 0.00 | 52 | 1010.8 |
| 20260902235648 | 78 | 71 | 8.0 | 11.0 | 0.00 | 0.00 | 0.00 | 52 | 1010.9 |
| 20260902235144 | 78 | 68 | 9.0 | 11.0 | 0.00 | 0.00 | 0.00 | 52 | 1010.9 |
| 20260902234637 | 78 | 67 | 11.0 | 15.0 | 0.00 | 0.00 | 0.00 | 53 | 1011.1 |
| 20260902234136 | 79 | 97 | 8.0 | 9.0 | 0.00 | 0.00 | 0.00 | 54 | 1011.1 |
| 20260902233632 | 79 | 62 | 7.0 | 8.0 | 0.00 | 0.00 | 0.00 | 55 | 1010.9 |
| 20260902233126 | 79 | 99 | 10.0 | 13.0 | 0.00 | 0.00 | 0.00 | 54 | 1010.9 |
| 20260902232625 | 80 | 101 | 13.0 | 17.0 | 0.00 | 0.00 | 0.00 | 53 | 1010.9 |
| 20260902232125 | 80 | 141 | 6.0 | 7.0 | 0.00 | 0.00 | 0.00 | 52 | 1010.9 |
| 20260902231624 | 80 | 60 | 7.0 | 10.0 | 0.00 | 0.00 | 0.00 | 52 | 1010.7 |
| 20260902231124 | 80 | 91 | 9.0 | 11.0 | 0.00 | 0.00 | 0.00 | 52 | 1010.8 |
| 20260902230620 | 80 | 75 | 8.0 | 9.0 | 0.00 | 0.00 | 0.00 | 53 | 1010.9 |
| 20260902230118 | 81 | 90 | 10.0 | 14.0 | 0.00 | 0.00 | 0.00 | 52 | 1011.1 |
| 20260902225614 | 81 | 143 | 13.0 | 14.0 | 0.00 | 0.00 | 0.00 | 52 | 1010.8 |
| 20260902225113 | 81 | 92 | 7.0 | 10.0 | 0.00 | 0.00 | 0.00 | 53 | 1011.1 |
| 20260902224612 | 81 | 81 | 13.0 | 18.0 | 0.00 | 0.00 | 0.00 | 51 | 1010.9 |
| 20260902224108 | 81 | 87 | 9.0 | 10.0 | 0.00 | 0.00 | 0.00 | 52 | 1010.9 |
| 20260902223604 | 82 | 80 | 13.0 | 17.0 | 0.00 | 0.00 | 0.00 | 51 | 1010.9 |
| 20260902223103 | 81 | 140 | 7.0 | 8.0 | 0.00 | 0.00 | 0.00 | 52 | 1010.8 |
| 20260902222601 | 79 | 94 | 9.0 | 10.0 | 0.00 | 0.00 | 0.00 | 54 | 1010.9 |
| 20260902222100 | 80 | 103 | 4.0 | 7.0 | 0.00 | 0.00 | 0.00 | 54 | 1010.9 |
| 20260902221555 | 81 | 102 | 6.0 | 9.0 | 0.00 | 0.00 | 0.00 | 53 | 1010.9 |
| 20260902221050 | 82 | 47 | 9.0 | 11.0 | 0.00 | 0.00 | 0.00 | 51 | 1011.3 |
| 20260902220545 | 82 | 87 | 9.0 | 9.0 | 0.00 | 0.00 | 0.00 | 50 | 1010.9 |
| 20260902220040 | 82 | 101 | 7.0 | 8.0 | 0.00 | 0.00 | 0.00 | 51 | 1011.1 |
| 20260902215537 | 82 | 78 | 8.0 | 11.0 | 0.00 | 0.00 | 0.00 | 51 | 1010.9 |
| 20260902215032 | 82 | 78 | 9.0 | 11.0 | 0.00 | 0.00 | 0.00 | 51 | 1011.1 |
| 20260902214531 | 81 | 108 | 9.0 | 11.0 | 0.00 | 0.00 | 0.00 | 53 | 1011.1 |
| 20260902214031 | 82 | 122 | 9.0 | 11.0 | 0.00 | 0.00 | 0.00 | 53 | 1011.1 |
| 20260902213527 | 81 | 124 | 6.0 | 7.0 | 0.00 | 0.00 | 0.00 | 53 | 1011.3 |
| 20260902213025 | 81 | 99 | 6.0 | 7.0 | 0.00 | 0.00 | 0.00 | 52 | 1011.3 |
| 20260902212522 | 81 | 78 | 8.0 | 10.0 | 0.00 | 0.00 | 0.00 | 52 | 1011.3 |
| 20260902212017 | 83 | 108 | 10.0 | 14.0 | 0.00 | 0.00 | 0.00 | 50 | 1011.2 |
| 20260902211514 | 82 | 76 | 8.0 | 11.0 | 0.00 | 0.00 | 0.00 | 50 | 1011.3 |
| 20260902211009 | 82 | 107 | 9.0 | 11.0 | 0.00 | 0.00 | 0.00 | 50 | 1011.4 |
| 20260902210508 | 83 | 82 | 8.0 | 9.0 | 0.00 | 0.00 | 0.00 | 50 | 1011.3 |
| 20260902210008 | 82 | 122 | 8.0 | 11.0 | 0.00 | 0.00 | 0.00 | 51 | 1011.2 |
| 20260902205501 | 82 | 149 | 9.0 | 11.0 | 0.00 | 0.00 | 0.00 | 49 | 1011.4 |
| 20260902204957 | 82 | 77 | 9.0 | 13.0 | 0.00 | 0.00 | 0.00 | 49 | 1011.5 |
| 20260902204456 | 81 | 116 | 11.0 | 13.0 | 0.00 | 0.00 | 0.00 | 50 | 1011.6 |
| 20260902203952 | 82 | 68 | 8.0 | 11.0 | 0.00 | 0.00 | 0.00 | 51 | 1011.7 |
| 20260902203448 | 82 | 103 | 7.0 | 10.0 | 0.00 | 0.00 | 0.00 | 51 | 1011.6 |
| 20260902202946 | 82 | 82 | 9.0 | 11.0 | 0.00 | 0.00 | 0.00 | 50 | 1011.7 |
| 20260902202443 | 82 | 103 | 10.0 | 11.0 | 0.00 | 0.00 | 0.00 | 51 | 1011.6 |
| 20260902201940 | 81 | 90 | 10.0 | 11.0 | 0.00 | 0.00 | 0.00 | 51 | 1012.0 |
| 20260902201434 | 79 | 94 | 7.0 | 9.0 | 0.00 | 0.00 | 0.00 | 53 | 1011.9 |
| 20260902200929 | 79 | 108 | 8.0 | 9.0 | 0.00 | 0.00 | 0.00 | 52 | 1012.2 |
| 20260902200424 | 80 | 101 | 7.0 | 9.0 | 0.00 | 0.00 | 0.00 | 52 | 1012.2 |
| 20260902195919 | 82 | 75 | 7.0 | 9.0 | 0.00 | 0.00 | 0.00 | 51 | 1012.1 |
| 20260902195414 | 81 | 120 | 6.0 | 7.0 | 0.00 | 0.00 | 0.00 | 51 | 1012.1 |
| 20260902194909 | 81 | 112 | 11.0 | 13.0 | 0.00 | 0.00 | 0.00 | 50 | 1012.2 |
| 20260902194408 | 81 | 101 | 7.0 | 7.0 | 0.00 | 0.00 | 0.00 | 50 | 1012.2 |
| 20260902193903 | 82 | 122 | 10.0 | 13.0 | 0.00 | 0.00 | 0.00 | 50 | 1012.3 |
| 20260902193400 | 81 | 99 | 9.0 | 10.0 | 0.00 | 0.00 | 0.00 | 50 | 1012.2 |
| 20260902192858 | 81 | 106 | 7.0 | 9.0 | 0.00 | 0.00 | 0.00 | 50 | 1012.4 |
| 20260902192357 | 81 | 120 | 4.0 | 5.0 | 0.00 | 0.00 | 0.00 | 51 | 1012.4 |
| 20260902191856 | 81 | 78 | 6.0 | 9.0 | 0.00 | 0.00 | 0.00 | 50 | 1012.4 |
| 20260902191352 | 81 | 101 | 5.0 | 6.0 | 0.00 | 0.00 | 0.00 | 51 | 1012.5 |
| 20260902190842 | 80 | 136 | 7.0 | 9.0 | 0.00 | 0.00 | 0.00 | 51 | 1012.7 |
| 20260902190341 | 80 | 114 | 9.0 | 9.0 | 0.00 | 0.00 | 0.00 | 50 | 1012.9 |
| 20260902185837 | 80 | 109 | 8.0 | 9.0 | 0.00 | 0.00 | 0.00 | 51 | 1012.9 |
| 20260902185332 | 80 | 82 | 5.0 | 6.0 | 0.00 | 0.00 | 0.00 | 53 | 1013.0 |
| 20260902184828 | 80 | 68 | 9.0 | 11.0 | 0.00 | 0.00 | 0.00 | 52 | 1012.9 |
| 20260902184323 | 80 | 58 | 8.0 | 10.0 | 0.00 | 0.00 | 0.00 | 51 | 1012.9 |
| 20260902183818 | 79 | 148 | 7.0 | 10.0 | 0.00 | 0.00 | 0.00 | 51 | 1013.1 |
| 20260902183314 | 80 | 144 | 9.0 | 10.0 | 0.00 | 0.00 | 0.00 | 50 | 1013.3 |
| 20260902182810 | 80 | 120 | 11.0 | 14.0 | 0.00 | 0.00 | 0.00 | 50 | 1013.4 |
| 20260902182307 | 80 | 70 | 8.0 | 9.0 | 0.00 | 0.00 | 0.00 | 50 | 1012.9 |
| 20260902181803 | 79 | 165 | 11.0 | 13.0 | 0.00 | 0.00 | 0.00 | 51 | 1013.4 |
| 20260902181258 | 79 | 86 | 6.0 | 8.0 | 0.00 | 0.00 | 0.00 | 52 | 1013.5 |
| 20260902180752 | 79 | 82 | 9.0 | 10.0 | 0.00 | 0.00 | 0.00 | 51 | 1013.5 |
| 20260902180248 | 79 | 135 | 11.0 | 14.0 | 0.00 | 0.00 | 0.00 | 50 | 1013.2 |
| 20260902175743 | 79 | 130 | 9.0 | 13.0 | 0.00 | 0.00 | 0.00 | 50 | 1013.5 |
| 20260902175239 | 79 | 155 | 7.0 | 8.0 | 0.00 | 0.00 | 0.00 | 51 | 1013.5 |
| 20260902174734 | 79 | 101 | 11.0 | 14.0 | 0.00 | 0.00 | 0.00 | 52 | 1013.7 |
| 20260902174230 | 78 | 77 | 7.0 | 9.0 | 0.00 | 0.00 | 0.00 | 53 | 1013.5 |
| 20260902173725 | 78 | 78 | 9.0 | 10.0 | 0.00 | 0.00 | 0.00 | 52 | 1013.8 |
| 20260902173220 | 77 | 133 | 6.0 | 7.0 | 0.00 | 0.00 | 0.00 | 54 | 1013.8 |
| 20260902172715 | 77 | 137 | 9.0 | 10.0 | 0.00 | 0.00 | 0.00 | 54 | 1013.9 |
| 20260902172214 | 77 | 122 | 7.0 | 8.0 | 0.00 | 0.00 | 0.00 | 55 | 1013.8 |
| 20260902171709 | 76 | 144 | 7.0 | 9.0 | 0.00 | 0.00 | 0.00 | 56 | 1013.8 |
| 20260902171205 | 77 | 184 | 11.0 | 14.0 | 0.00 | 0.00 | 0.00 | 55 | 1014.0 |
| 20260902170701 | 77 | 133 | 8.0 | 9.0 | 0.00 | 0.00 | 0.00 | 57 | 1013.9 |
| 20260902170156 | 76 | 105 | 5.0 | 6.0 | 0.00 | 0.00 | 0.00 | 57 | 1014.0 |
| 20260902165650 | 76 | 151 | 7.0 | 9.0 | 0.00 | 0.00 | 0.00 | 58 | 1014.2 |
| 20260902165144 | 75 | 89 | 10.0 | 13.0 | 0.00 | 0.00 | 0.00 | 58 | 1014.0 |
| 20260902164640 | 75 | 113 | 7.0 | 8.0 | 0.00 | 0.00 | 0.00 | 61 | 1014.0 |
| 20260902164139 | 75 | 94 | 8.0 | 9.0 | 0.00 | 0.00 | 0.00 | 59 | 1014.2 |
| 20260902163634 | 75 | 120 | 7.0 | 8.0 | 0.00 | 0.00 | 0.00 | 60 | 1014.1 |
| 20260902163134 | 75 | 112 | 6.0 | 7.0 | 0.00 | 0.00 | 0.00 | 59 | 1014.2 |
| 20260902162632 | 75 | 143 | 8.0 | 10.0 | 0.00 | 0.00 | 0.00 | 60 | 1013.9 |
| 20260902162126 | 75 | 132 | 8.0 | 8.0 | 0.00 | 0.00 | 0.00 | 60 | 1014.2 |
| 20260902161622 | 74 | 158 | 9.0 | 11.0 | 0.00 | 0.00 | 0.00 | 61 | 1014.2 |
| 20260902161118 | 74 | 144 | 9.0 | 13.0 | 0.00 | 0.00 | 0.00 | 62 | 1014.3 |
| 20260902160608 | 73 | 150 | 9.0 | 11.0 | 0.00 | 0.00 | 0.00 | 61 | 1014.2 |
| 20260902155555 | 73 | 165 | 4.0 | 6.0 | 0.00 | 0.00 | 0.00 | 63 | 1014.3 |
| 20260902155054 | 74 | 118 | 5.0 | 7.0 | 0.00 | 0.00 | 0.00 | 64 | 1014.2 |
| 20260902154550 | 73 | 114 | 10.0 | 11.0 | 0.00 | 0.00 | 0.00 | 64 | 1014.3 |
| 20260902154045 | 73 | 149 | 7.0 | 8.0 | 0.00 | 0.00 | 0.00 | 65 | 1014.2 |
| 20260902153543 | 72 | 102 | 6.0 | 7.0 | 0.00 | 0.00 | 0.00 | 67 | 1014.3 |
| 20260902153039 | 72 | 139 | 7.0 | 10.0 | 0.00 | 0.00 | 0.00 | 67 | 1014.3 |
| 20260902152535 | 71 | 122 | 7.0 | 9.0 | 0.00 | 0.00 | 0.00 | 68 | 1014.5 |
| 20260902152030 | 71 | 75 | 8.0 | 9.0 | 0.00 | 0.00 | 0.00 | 69 | 1014.1 |
| 20260902151526 | 71 | 133 | 5.0 | 7.0 | 0.00 | 0.00 | 0.00 | 70 | 1014.2 |
| 20260902151025 | 70 | 146 | 5.0 | 7.0 | 0.00 | 0.00 | 0.00 | 70 | 1014.1 |
| 20260902150521 | 70 | 117 | 6.0 | 10.0 | 0.00 | 0.00 | 0.00 | 71 | 1014.3 |
| 20260902150016 | 70 | 106 | 7.0 | 8.0 | 0.00 | 0.00 | 0.00 | 71 | 1014.4 |
| 20260902145510 | 70 | 118 | 5.0 | 7.0 | 0.00 | 0.00 | 0.00 | 72 | 1014.5 |
| 20260902145005 | 70 | 119 | 5.0 | 7.0 | 0.00 | 0.00 | 0.00 | 72 | 1014.8 |
| 20260902144502 | 69 | 89 | 6.0 | 7.0 | 0.00 | 0.00 | 0.00 | 72 | 1014.5 |
| 20260902143956 | 69 | 118 | 8.0 | 10.0 | 0.00 | 0.00 | 0.00 | 72 | 1014.6 |
| 20260902143451 | 69 | 109 | 7.0 | 9.0 | 0.00 | 0.00 | 0.00 | 72 | 1014.6 |
| 20260902142947 | 69 | 97 | 5.0 | 6.0 | 0.00 | 0.00 | 0.00 | 74 | 1014.9 |
| 20260902142442 | 68 | 153 | 8.0 | 10.0 | 0.00 | 0.00 | 0.00 | 74 | 1014.6 |
| 20260902141937 | 68 | 130 | 5.0 | 6.0 | 0.00 | 0.00 | 0.00 | 75 | 1014.5 |
| 20260902141433 | 68 | 124 | 7.0 | 8.0 | 0.00 | 0.00 | 0.00 | 75 | 1014.6 |
| 20260902140932 | 68 | 82 | 5.0 | 7.0 | 0.00 | 0.00 | 0.00 | 76 | 1014.5 |
| 20260902140427 | 68 | 102 | 7.0 | 7.0 | 0.00 | 0.00 | 0.00 | 76 | 1014.8 |
| 20260902135922 | 68 | 90 | 3.0 | 3.0 | 0.00 | 0.00 | 0.00 | 76 | 1014.6 |
| 20260902135418 | 67 | 136 | 5.0 | 6.0 | 0.00 | 0.00 | 0.00 | 76 | 1014.5 |
| 20260902134916 | 66 | 108 | 3.0 | 3.0 | 0.00 | 0.00 | 0.00 | 79 | 1014.5 |
| 20260902134412 | 66 | 67 | 4.0 | 6.0 | 0.00 | 0.00 | 0.00 | 79 | 1014.5 |
| 20260902133907 | 66 | 114 | 3.0 | 3.0 | 0.00 | 0.00 | 0.00 | 79 | 1014.6 |
| 20260902133407 | 66 | 128 | 3.0 | 3.0 | 0.00 | 0.00 | 0.00 | 78 | 1014.6 |
| 20260902132902 | 66 | 141 | 3.0 | 5.0 | 0.00 | 0.00 | 0.00 | 78 | 1014.6 |
| 20260902132357 | 66 | 104 | 4.0 | 5.0 | 0.00 | 0.00 | 0.00 | 77 | 1014.5 |
| 20260902131852 | 65 | 109 | 3.0 | 6.0 | 0.00 | 0.00 | 0.00 | 77 | 1014.4 |
| 20260902131349 | 65 | 119 | 4.0 | 5.0 | 0.00 | 0.00 | 0.00 | 79 | 1014.8 |
| 20260902130848 | 64 | 90 | 4.0 | 5.0 | 0.00 | 0.00 | 0.00 | 81 | 1014.6 |
| 20260902130344 | 63 | 99 | 3.0 | 3.0 | 0.00 | 0.00 | 0.00 | 83 | 1014.5 |
| 20260902125838 | 62 | 98 | 2.0 | 2.0 | 0.00 | 0.00 | 0.00 | 84 | 1014.5 |
| 20260902125334 | 61 | 112 | 3.0 | 3.0 | 0.00 | 0.00 | 0.00 | 86 | 1014.5 |
| 20260902124831 | 61 | 125 | 3.0 | 3.0 | 0.00 | 0.00 | 0.00 | 86 | 1014.4 |
| 20260902124326 | 61 | 110 | 4.0 | 5.0 | 0.00 | 0.00 | 0.00 | 86 | 1014.6 |
| 20260902123821 | 61 | 81 | 4.0 | 5.0 | 0.00 | 0.00 | 0.00 | 85 | 1014.5 |
| 20260902123318 | 60 | 86 | 5.0 | 5.0 | 0.00 | 0.00 | 0.00 | 85 | 1014.0 |
| 20260902122816 | 60 | 78 | 4.0 | 5.0 | 0.00 | 0.00 | 0.00 | 85 | 1014.3 |
| 20260902122313 | 60 | 78 | 2.0 | 2.0 | 0.00 | 0.00 | 0.00 | 86 | 1014.5 |
| 20260902121812 | 60 | 74 | 1.0 | 2.0 | 0.00 | 0.00 | 0.00 | 86 | 1014.2 |
| 20260902121307 | 59 | 95 | 1.0 | 1.0 | 0.00 | 0.00 | 0.00 | 86 | 1014.3 |
| 20260902120803 | 59 | 105 | 1.0 | 1.0 | 0.00 | 0.00 | 0.00 | 86 | 1014.3 |
| 20260902120259 | 60 | 104 | 1.0 | 2.0 | 0.00 | 0.00 | 0.00 | 85 | 1014.3 |
| 20260902115753 | 60 | 91 | 3.0 | 3.0 | 0.00 | 0.00 | 0.00 | 85 | 1014.1 |
| 20260902115249 | 60 | 84 | 4.0 | 5.0 | 0.00 | 0.00 | 0.00 | 85 | 1014.4 |
| 20260902114745 | 60 | 123 | 3.0 | 3.0 | 0.00 | 0.00 | 0.00 | 84 | 1014.3 |
| 20260902114241 | 60 | 120 | 3.0 | 3.0 | 0.00 | 0.00 | 0.00 | 83 | 1014.1 |
| 20260902113736 | 60 | 106 | 4.0 | 5.0 | 0.00 | 0.00 | 0.00 | 83 | 1013.9 |
| 20260902113231 | 60 | 85 | 5.0 | 7.0 | 0.00 | 0.00 | 0.00 | 84 | 1014.2 |
| 20260902112730 | 59 | 96 | 4.0 | 5.0 | 0.00 | 0.00 | 0.00 | 85 | 1014.1 |
| 20260902112228 | 60 | 111 | 3.0 | 5.0 | 0.00 | 0.00 | 0.00 | 84 | 1014.3 |
| 20260902111723 | 60 | 112 | 3.0 | 3.0 | 0.00 | 0.00 | 0.00 | 84 | 1014.3 |
| 20260902111219 | 60 | 111 | 2.0 | 2.0 | 0.00 | 0.00 | 0.00 | 83 | 1014.3 |
| 20260902110714 | 60 | 81 | 3.0 | 3.0 | 0.00 | 0.00 | 0.00 | 83 | 1014.1 |
| 20260902110210 | 61 | 77 | 4.0 | 5.0 | 0.00 | 0.00 | 0.00 | 82 | 1014.0 |
| 20260902105710 | 61 | 68 | 5.0 | 7.0 | 0.00 | 0.00 | 0.00 | 82 | 1014.0 |
| 20260902105205 | 61 | 70 | 5.0 | 6.0 | 0.00 | 0.00 | 0.00 | 82 | 1013.9 |
| 20260902104701 | 61 | 69 | 4.0 | 5.0 | 0.00 | 0.00 | 0.00 | 82 | 1014.1 |
| 20260902104157 | 60 | 77 | 3.0 | 3.0 | 0.00 | 0.00 | 0.00 | 82 | 1014.2 |
| 20260902103655 | 60 | 72 | 2.0 | 2.0 | 0.00 | 0.00 | 0.00 | 82 | 1014.1 |
| 20260902103151 | 60 | 79 | 0.0 | 1.0 | 0.00 | 0.00 | 0.00 | 82 | 1014.2 |
| 20260902102647 | 61 | 112 | 0.0 | 1.0 | 0.00 | 0.00 | 0.00 | 80 | 1014.1 |
| 20260902102144 | 62 | 97 | 3.0 | 3.0 | 0.00 | 0.00 | 0.00 | 79 | 1014.1 |
| 20260902101639 | 62 | 76 | 3.0 | 3.0 | 0.00 | 0.00 | 0.00 | 78 | 1014.3 |
| 20260902101138 | 62 | 74 | 3.0 | 3.0 | 0.00 | 0.00 | 0.00 | 78 | 1013.9 |
| 20260902100633 | 60 | 53 | 2.0 | 2.0 | 0.00 | 0.00 | 0.00 | 81 | 1014.0 |
| 20260902100128 | 60 | 108 | 0.0 | 0.0 | 0.00 | 0.00 | 0.00 | 82 | 1014.1 |
| 20260902095627 | 61 | 152 | 0.0 | 0.0 | 0.00 | 0.00 | 0.00 | 81 | 1014.1 |
| 20260902095126 | 62 | 61 | 1.0 | 1.0 | 0.00 | 0.00 | 0.00 | 80 | 1014.0 |
| 20260902094621 | 62 | 64 | 2.0 | 2.0 | 0.00 | 0.00 | 0.00 | 79 | 1014.0 |
| 20260902094118 | 62 | 62 | 2.0 | 2.0 | 0.00 | 0.00 | 0.00 | 79 | 1014.2 |
| 20260902093612 | 62 | 58 | 3.0 | 3.0 | 0.00 | 0.00 | 0.00 | 79 | 1013.9 |
| 20260902093106 | 63 | 66 | 3.0 | 3.0 | 0.00 | 0.00 | 0.00 | 78 | 1014.1 |
| 20260902092601 | 63 | 69 | 2.0 | 3.0 | 0.00 | 0.00 | 0.00 | 77 | 1013.9 |
| 20260902092056 | 63 | 62 | 3.0 | 3.0 | 0.00 | 0.00 | 0.00 | 78 | 1014.0 |
| 20260902091551 | 62 | 58 | 3.0 | 3.0 | 0.00 | 0.00 | 0.00 | 79 | 1014.0 |
| 20260902091047 | 62 | 76 | 2.0 | 2.0 | 0.00 | 0.00 | 0.00 | 79 | 1014.3 |
| 20260902090542 | 62 | 83 | 3.0 | 3.0 | 0.00 | 0.00 | 0.00 | 79 | 1014.1 |
| 20260902090042 | 62 | 77 | 2.0 | 2.0 | 0.00 | 0.00 | 0.00 | 81 | 1014.4 |
| 20260902085536 | 62 | 93 | 1.0 | 1.0 | 0.00 | 0.00 | 0.00 | 80 | 1014.6 |
| 20260902085031 | 62 | 94 | 2.0 | 2.0 | 0.00 | 0.00 | 0.00 | 79 | 1014.5 |
| 20260902084522 | 62 | 84 | 1.0 | 1.0 | 0.00 | 0.00 | 0.00 | 80 | 1014.5 |
| 20260902084017 | 63 | 81 | 1.0 | 1.0 | 0.00 | 0.00 | 0.00 | 78 | 1014.5 |
| 20260902083513 | 63 | 102 | 1.0 | 2.0 | 0.00 | 0.00 | 0.00 | 78 | 1014.4 |
| 20260902083007 | 63 | 114 | 2.0 | 2.0 | 0.00 | 0.00 | 0.00 | 78 | 1014.6 |
| 20260902082503 | 63 | 76 | 3.0 | 3.0 | 0.00 | 0.00 | 0.00 | 78 | 1014.4 |
| 20260902081959 | 63 | 62 | 3.0 | 3.0 | 0.00 | 0.00 | 0.00 | 78 | 1014.4 |
| 20260902081456 | 62 | 58 | 2.0 | 2.0 | 0.00 | 0.00 | 0.00 | 78 | 1014.5 |
| 20260902080954 | 62 | 72 | 1.0 | 1.0 | 0.00 | 0.00 | 0.00 | 78 | 1014.4 |
| 20260902080451 | 62 | 77 | 1.0 | 2.0 | 0.00 | 0.00 | 0.00 | 78 | 1014.3 |
| 20260902075950 | 62 | 72 | 2.0 | 2.0 | 0.00 | 0.00 | 0.00 | 78 | 1014.3 |
| 20260902075447 | 63 | 67 | 3.0 | 3.0 | 0.00 | 0.00 | 0.00 | 77 | 1014.4 |
| 20260902074942 | 63 | 50 | 3.0 | 3.0 | 0.00 | 0.00 | 0.00 | 77 | 1014.3 |